Regional Weather Roundup
Issued by NWS Binghamton, NY

Home | Current Version | Previous Version | Text Only | Print | Product List | Glossary On
Versions: 1 2 3 4 5 6 7 8 9 10 11 12 13 14 15 16 17 18 19 20 21 22 23 24 25 26 27
000
ASUS41 KBGM 302110
RWRBGM

REGIONAL WEATHER ROUNDUP
NATIONAL WEATHER SERVICE BINGHAMTON NY
500 PM EDT TUE AUG 30 2016

Note: "fair" indicates few or no clouds below 12,000 feet with no
significant weather and/or obstructions to visibility.

* = Station(s) that does not report precipitation, such as rain,
snow, etc, also no thunder or fog.

NYZ009-015>018-022>025-036-037-044>046-055>057-062-302200
...Central New York...

CITY           SKY/WX    TMP DP  RH WIND       PRES   REMARKS
Binghamton     SUNNY     75  55  49 W6        30.11F
Cortland       FAIR      79  54  41 W3        30.09F
Dansville      CLOUDY    84  55  36 CALM      30.07F
Elmira         MOSUNNY   82  58  43 S5        30.07F
Ithaca         NOT AVBL
Hamilton       SUNNY     79  57  47 W3        30.09F
Hornell        SUNNY     81  55  41 W3        30.13F
Monticello     SUNNY     79  55  44 W6        30.12F
Norwich        SUNNY     77  54  44 SW6       30.10S
Oneonta        SUNNY     73  52  46 W3        30.12F
Penn Yan       SUNNY     83  56  39 VRB3      30.08F
Rome           SUNNY     78  59  51 W6        30.07F
Sidney         SUNNY     81  61  50 NW5       30.09F
Syracuse       MOSUNNY   82  57  42 W8        30.05F
$$

PAZ038>040-043-044-047-048-072-302200
...Northeast Pennsylvania...

CITY           SKY/WX    TMP DP  RH WIND       PRES   REMARKS
Hazleton       SUNNY     77  57  50 W3        30.16F
Scranton       MOSUNNY   81  60  48 W6        30.09F
$$
&&
KEY
WCI = Wind Chill Index
VSB = Visibility
HX  = Heat Index
$$




USA.gov is the U.S. government's official web portal to all federal, state and local government web resources and services.